STARLINK-5632, 55400

Orbit data source: Space-Track

STARLINK-5632, 55400 is a payload satellite owned by SpaceX/Seattle (US) in LEO that was launched on Tue, 31 Jan 2023 UTC via an FALCON 9 launch vehicle from the Air Force Western Test Range (AFWTR). Payload-class satellites include a variety of spacecraft equipped with specific instruments for various scientific and technological missions. These include communications satellites like Starlink; space stations such as the ISS; scientific satellites like the Hubble; Earth observation satellites from companies like Planet Labs, Umbra, and HawkEye 360; GPS; miniature CubeSats for education and research; and military/defense satellites.

Loading next visibility...
Identifier
55400, 2023-014K
Orbit
LEO
Country
Flag of USUS
Related business
Manufacturer
SpaceX/Seattle
Mission
Operational Commercial Communications
Bus & Motor
STARLINK, Unknown motor
Mass
305 kg wet, ~290 kg dry
Launch date (UTC)
2023-01-31 (3 years ago)
Launch vehicle
FALCON 9
Launch site
Air Force Western Test Range (AFWTR)
Object type
Payload
Rocket body
Debris
Shape & HBR
Box + 1 Pan, 10.1 m
Radar Cross Section
13.562 m², Large (>1 m²)

Expand to show TLE details & history
Last TLE update: 2 days ago

TLE from 2 days ago
0 STARLINK-5632
1 55400U 23014K   26171.42360634  .00013093  00000-0  11047-2 0  9990
2 55400  69.9994 165.4334 0003238 264.2645  95.8145 14.98273351187442
Epoch: 2026-06-20T10:09Z
TLE epoch observation values (Epoch: 2026-06-20T10:09:59.587Z)
Latitude
-0.00003°
Longitude
104.29667°
Altitude
574.884 km
Speed
7.574 km/s
True Right ascension
11h 01m 44s
True Declination
0° 00' 00"
Sunlit
Object was in daylight at epoch
Visualization orbit readout
Latitude
Unknown
Longitude
Unknown
Altitude
Unknown
Speed
Unknown
Apparent Right ascension
Unknown
Apparent Declination
Unknown
Sunlit
N/A
Visualization observer readout
Local Sidereal Time
21:30:41
Azimuth
Unknown
Elevation
Unknown
Doppler factor
Unknown
Orbital elements
Apogee altitude
572.429 km
Perigee altitude
567.93 km
Semi-major axis
6,948.316 km
Eccentricity
0.00032
Inclination
69.9994°
RAAN
165.4334°
Arg. of periapsis
264.2645°
True anomaly
95.85141°
Mean anomaly
95.8145°
Eccentric anomaly
95.83296°
Mean motion
3.74735 °/min
Orbital period
96.07 mins
BSTAR
0.0011047
Loading maneuver chart data...
Computing Atmospheric mass density...

Documentation

Showing up to 5 results
|